Location: Malvern Link
(52.1333°N, 2.3000°W)
Time: 10:50:01
(UTC+00:00)

SPROUT - Pass Details

Date: 02 July 2022
Orbit: 588 x 598 km, 97.9° (Epoch: 18 August)

Event Time Altitude Azimuth Distance (km) Brightness Sun altitude
Exits shadow 00:28:13 20° 148° (SSE) 1,402 ? -14.7°
Maximum altitude 00:31:02 62° 71° (ENE) 666 ? -14.7°
Drops below altitude 10° 00:35:10 10° 351° (N) 1,931 ? -14.7°
Sets 00:37:21 0° 348° (NNW) 2,839 ? -14.6°
